When you browse on this site, cookies collect data to enhance your experience and personalize the content and advertising you see.
Visit our Privacy Policy to learn more. By continuing to use the site, you agree to this use of cookies and data.
  • în România
  • Lista ţărilor
  • Pe 7 zile
  • Temperatura apei
  • Meteo pe hartă
  • Widget-uri
  • user-avatar
    Intrare

    Meteo pe oră la San Luis

    Astăzi, 2 Iunie, Marţi

    Timp Temperatura Precipitaţii Vânt Presiune Umiditate
    00:00 +7°C° 0 mm 4 m/s 701 mmHg 54%
    01:00 +7°C° 0 mm 4 m/s 701 mmHg 54%
    02:00 +7°C° 0 mm 5 m/s 701 mmHg 54%
    03:00 +7°C° 0 mm 5 m/s 700 mmHg 54%
    04:00 +7°C° 0 mm 5 m/s 700 mmHg 54%
    05:00 +7°C° 0 mm 5 m/s 700 mmHg 53%
    06:00 +7°C° 0 mm 5 m/s 700 mmHg 53%
    07:00 +7°C° 0 mm 5 m/s 700 mmHg 53%
    08:00 +7°C° 0 mm 4 m/s 700 mmHg 52%
    09:00 +10°C° 0 mm 4 m/s 700 mmHg 46%
    10:00 +13°C° 0 mm 5 m/s 700 mmHg 40%
    11:00 +15°C° 0 mm 5 m/s 700 mmHg 34%
    12:00 +17°C° 0 mm 4 m/s 700 mmHg 33%
    13:00 +18°C° 0 mm 4 m/s 699 mmHg 32%
    14:00 +18°C° 0 mm 4 m/s 698 mmHg 31%
    15:00 +17°C° 0 mm 4 m/s 697 mmHg 34%
    16:00 +16°C° 0 mm 3 m/s 697 mmHg 36%
    17:00 +14°C° 0 mm 3 m/s 696 mmHg 39%
    18:00 +13°C° 0 mm 3 m/s 696 mmHg 43%
    19:00 +11°C° 0 mm 3 m/s 696 mmHg 47%
    20:00 +9°C° 0 mm 2 m/s 696 mmHg 51%
    21:00 +9°C° 0 mm 2 m/s 696 mmHg 53%
    22:00 +8°C° 0 mm 2 m/s 696 mmHg 54%
    23:00 +8°C° 0 mm 2 m/s 696 mmHg 56%

    Mâine, 3 Iunie, Miercuri

    Timp Temperatura Precipitaţii Vânt Presiune Umiditate
    00:00 +8°C° 0 mm 2 m/s 696 mmHg 58%
    01:00 +7°C° 0 mm 2 m/s 696 mmHg 60%
    02:00 +6°C° 0 mm 2 m/s 696 mmHg 62%
    03:00 +7°C° 0 mm 1 m/s 696 mmHg 65%
    04:00 +7°C° 0 mm 1 m/s 696 mmHg 67%
    05:00 +6°C° 0 mm 1 m/s 697 mmHg 70%
    06:00 +6°C° 0 mm 2 m/s 698 mmHg 68%
    07:00 +6°C° 0 mm 2 m/s 699 mmHg 65%
    08:00 +7°C° 0 mm 3 m/s 700 mmHg 62%
    09:00 +9°C° 0 mm 3 m/s 700 mmHg 57%
    10:00 +10°C° 0 mm 3 m/s 701 mmHg 51%
    11:00 +12°C° 0 mm 3 m/s 701 mmHg 45%
    12:00 +12°C° 0 mm 3 m/s 701 mmHg 47%
    13:00 +11°C° 0 mm 4 m/s 701 mmHg 48%
    14:00 +11°C° 0 mm 4 m/s 701 mmHg 49%
    15:00 +11°C° 0 mm 4 m/s 701 mmHg 52%
    16:00 +10°C° 0 mm 4 m/s 702 mmHg 55%
    17:00 +10°C° 0 mm 4 m/s 702 mmHg 58%
    18:00 +9°C° 0 mm 3 m/s 702 mmHg 62%
    19:00 +9°C° 0 mm 2 m/s 702 mmHg 66%
    20:00 +9°C° 0 mm 1 m/s 703 mmHg 70%
    21:00 +8°C° 0.1 mm 2 m/s 703 mmHg 71%
    22:00 +8°C° 0.1 mm 2 m/s 703 mmHg 73%
    23:00 +8°C° 0.1 mm 2 m/s 703 mmHg 74%

    Poimâine, 4 Iunie, Joi

    Timp Temperatura Precipitaţii Vânt Presiune Umiditate
    00:00 +8°C° 0.1 mm 2 m/s 703 mmHg 76%
    01:00 +8°C° 0.1 mm 2 m/s 703 mmHg 77%
    02:00 +8°C° 0.1 mm 2 m/s 703 mmHg 79%
    03:00 +8°C° 0 mm 2 m/s 703 mmHg 79%
    04:00 +8°C° 0 mm 2 m/s 703 mmHg 80%
    05:00 +7°C° 0 mm 3 m/s 702 mmHg 81%
    06:00 +7°C° 0 mm 3 m/s 702 mmHg 83%
    07:00 +7°C° 0 mm 3 m/s 703 mmHg 85%
    08:00 +7°C° 0 mm 3 m/s 703 mmHg 86%
    09:00 +7°C° 0.2 mm 4 m/s 703 mmHg 83%
    10:00 +8°C° 0.2 mm 4 m/s 704 mmHg 79%
    11:00 +10°C° 0.2 mm 4 m/s 704 mmHg 75%
    12:00 +11°C° 0.2 mm 4 m/s 703 mmHg 71%
    13:00 +11°C° 0.2 mm 3 m/s 703 mmHg 68%
    14:00 +12°C° 0.2 mm 3 m/s 702 mmHg 64%
    15:00 +12°C° 0 mm 3 m/s 701 mmHg 65%
    16:00 +12°C° 0 mm 2 m/s 701 mmHg 67%
    17:00 +12°C° 0 mm 2 m/s 701 mmHg 68%
    18:00 +11°C° 0 mm 1 m/s 701 mmHg 72%
    19:00 +11°C° 0 mm 1 m/s 701 mmHg 75%
    20:00 +10°C° 0 mm 1 m/s 701 mmHg 79%
    21:00 +9°C° 0 mm 1 m/s 701 mmHg 82%
    22:00 +9°C° 0 mm 1 m/s 701 mmHg 84%
    23:00 +8°C° 0 mm 1 m/s 701 mmHg 87%

    5 Iunie, Vineri

    Timp Temperatura Precipitaţii Vânt Presiune Umiditate
    00:00 +8°C° 0 mm 1 m/s 701 mmHg 87%
    01:00 +7°C° 0 mm 1 m/s 701 mmHg 87%
    02:00 +6°C° 0 mm 2 m/s 701 mmHg 86%
    03:00 +6°C° 0 mm 2 m/s 701 mmHg 87%
    04:00 +6°C° 0 mm 2 m/s 700 mmHg 87%
    05:00 +5°C° 0 mm 3 m/s 700 mmHg 87%
    06:00 +5°C° 0 mm 3 m/s 700 mmHg 87%
    07:00 +6°C° 0 mm 2 m/s 700 mmHg 86%
    08:00 +6°C° 0 mm 2 m/s 700 mmHg 86%
    09:00 +9°C° 0 mm 2 m/s 701 mmHg 75%
    10:00 +11°C° 0 mm 3 m/s 701 mmHg 64%
    11:00 +13°C° 0 mm 3 m/s 701 mmHg 53%
    12:00 +15°C° 0 mm 2 m/s 700 mmHg 48%
    13:00 +16°C° 0 mm 2 m/s 700 mmHg 43%
    14:00 +17°C° 0 mm 2 m/s 699 mmHg 39%
    15:00 +16°C° 0 mm 1 m/s 699 mmHg 43%
    16:00 +15°C° 0 mm 1 m/s 698 mmHg 48%
    17:00 +12°C° 0 mm 0 m/s 698 mmHg 53%
    18:00 +11°C° 0 mm 0 m/s 698 mmHg 57%
    19:00 +11°C° 0 mm 1 m/s 698 mmHg 62%
    20:00 +10°C° 0 mm 1 m/s 698 mmHg 66%
    21:00 +9°C° 0 mm 1 m/s 698 mmHg 67%
    22:00 +8°C° 0 mm 2 m/s 698 mmHg 67%
    23:00 +8°C° 0 mm 2 m/s 698 mmHg 68%

    6 Iunie, Sâmbătă

    Timp Temperatura Precipitaţii Vânt Presiune Umiditate
    00:00 +8°C° 0 mm 2 m/s 697 mmHg 67%
    01:00 +8°C° 0 mm 2 m/s 697 mmHg 66%
    02:00 +8°C° 0 mm 2 m/s 697 mmHg 65%
    03:00 +8°C° 0 mm 2 m/s 697 mmHg 66%
    04:00 +8°C° 0 mm 3 m/s 696 mmHg 68%
    05:00 +7°C° 0 mm 3 m/s 696 mmHg 69%
    06:00 +7°C° 0 mm 2 m/s 696 mmHg 67%
    07:00 +8°C° 0 mm 2 m/s 696 mmHg 66%
    08:00 +8°C° 0 mm 2 m/s 696 mmHg 65%
    09:00 +11°C° 0 mm 3 m/s 697 mmHg 54%
    10:00 +14°C° 0 mm 4 m/s 697 mmHg 44%
    11:00 +18°C° 0 mm 4 m/s 697 mmHg 34%
    12:00 +19°C° 0 mm 5 m/s 697 mmHg 30%
    13:00 +20°C° 0 mm 5 m/s 696 mmHg 26%
    14:00 +22°C° 0 mm 5 m/s 696 mmHg 21%
    15:00 +20°C° 0 mm 4 m/s 696 mmHg 25%
    16:00 +18°C° 0 mm 4 m/s 696 mmHg 29%
    17:00 +17°C° 0 mm 3 m/s 695 mmHg 33%
    18:00 +14°C° 0 mm 3 m/s 696 mmHg 38%
    19:00 +12°C° 0 mm 3 m/s 696 mmHg 42%
    20:00 +10°C° 0 mm 2 m/s 696 mmHg 47%
    21:00 +10°C° 0 mm 2 m/s 697 mmHg 49%
    22:00 +9°C° 0 mm 2 m/s 697 mmHg 51%
    23:00 +9°C° 0 mm 2 m/s 698 mmHg 54%

    7 Iunie, Duminică

    Timp Temperatura Precipitaţii Vânt Presiune Umiditate
    00:00 +9°C° 0 mm 2 m/s 698 mmHg 55%
    01:00 +9°C° 0 mm 2 m/s 699 mmHg 57%
    02:00 +8°C° 0 mm 2 m/s 699 mmHg 58%
    03:00 +8°C° 0 mm 2 m/s 700 mmHg 59%
    04:00 +8°C° 0 mm 2 m/s 700 mmHg 59%
    05:00 +8°C° 0 mm 3 m/s 700 mmHg 60%
    06:00 +8°C° 0 mm 3 m/s 701 mmHg 61%
    07:00 +6°C° 0 mm 4 m/s 702 mmHg 62%
    08:00 +6°C° 0 mm 4 m/s 702 mmHg 63%
    09:00 +10°C° 0 mm 4 m/s 702 mmHg 55%
    10:00 +12°C° 0 mm 4 m/s 703 mmHg 48%
    11:00 +15°C° 0 mm 4 m/s 703 mmHg 40%
    12:00 +17°C° 0 mm 4 m/s 702 mmHg 38%
    13:00 +17°C° 0 mm 5 m/s 701 mmHg 36%
    14:00 +19°C° 0 mm 5 m/s 701 mmHg 34%
    15:00 +18°C° 0 mm 4 m/s 700 mmHg 38%
    16:00 +17°C° 0 mm 4 m/s 700 mmHg 42%
    17:00 +16°C° 0 mm 3 m/s 699 mmHg 47%
    18:00 +14°C° 0 mm 3 m/s 699 mmHg 53%
    19:00 +13°C° 0 mm 2 m/s 699 mmHg 60%
    20:00 +12°C° 0 mm 2 m/s 699 mmHg 66%
    21:00 +10°C° 0 mm 2 m/s 699 mmHg 70%
    22:00 +10°C° 0 mm 2 m/s 699 mmHg 74%
    23:00 +9°C° 0 mm 2 m/s 699 mmHg 78%
    Arată mai mult